Flag for U.S.A. Weather past 2 weeks in Charlotte, North Carolina, U.S.A.

Now
39 °F

Mostly cloudy.


Feels Like: 33 °F
Forecast: 26 / 41 °F
Wind: 9 mph from East

Location: Charlotte / Douglas International Airport

Current Time: Feb 28, 2015 at 1:01:36 PM

Latest Report: Feb 28, 2015 at 11:52 AM


Visibility: 10 mi

Pressure: 30.73 "Hg

Humidity: 41%

Dew point: 17 °F

Location of CharlotteLocation

Historic Weather in Charlotte — Graph

°F

Charlotte temperature yesterday

Maximum temperature yesterday: 49 °F (at 2:52 PM)
Minimum temperature yesterday: 29 °F (at 6:52 AM)
Average temperature yesterday: 39 °F

Past Weeks' High & Low Weather Summary

 TemperatureHumidityPressure
High56 °F (Feb 22, 2:52 PM)93% (Feb 22, 6:52 AM)30.73 "Hg (Feb 22, 6:52 AM)
Low8 °F (Feb 20, 5:52 AM)15% (Feb 15, 12:52 PM)29.69 "Hg (Feb 26, 3:52 AM)
Average33 °F56%30.14 "Hg
* Reported Feb 13 11:52 AM — Feb 28 11:52 AM, Charlotte, Weather by CustomWeather, © 2015

Note: Actual official high and low records may vary slightly from our data, if they occured in-between our weather recording intervals... More about our weather records

Advertising

Charlotte weather history for previous 24 hours

 ConditionsComfort  
Time TempWeatherWind HumidityBarometerVisibility
11:52 AM
Sat, Feb 28
39 °FMostly cloudy.9 mph41%30.73 "Hg10 mi
10:52 AM36 °FPartly sunny.9 mph48%30.73 "Hg10 mi
9:52 AM32 °FOvercast.9 mph54%30.73 "Hg10 mi
8:52 AM31 °FOvercast.12 mph52%30.71 "Hg10 mi
7:52 AM30 °FMostly cloudy.10 mph49%30.70 "Hg10 mi
6:52 AM29 °FOvercast.10 mph45%30.68 "Hg10 mi
5:52 AM30 °FOvercast.9 mph43%30.65 "Hg10 mi
4:52 AM30 °FOvercast.9 mph47%30.62 "Hg10 mi
3:52 AM30 °FPassing clouds.8 mph49%30.58 "Hg10 mi
2:52 AM31 °FPassing clouds.9 mph49%30.57 "Hg10 mi
1:52 AM32 °FPassing clouds.9 mph50%30.57 "Hg10 mi
12:52 AM34 °FClear.6 mph52%30.54 "Hg10 mi
11:52 PM
Fri, Feb 27
36 °FClear.13 mph52%30.52 "Hg10 mi
10:52 PM36 °FClear.7 mph59%30.50 "Hg10 mi
9:52 PM39 °FClear.8 mph50%30.48 "Hg10 mi
8:52 PM41 °FClear.9 mph47%30.45 "Hg10 mi
7:52 PM42 °FClear.7 mph49%30.42 "Hg10 mi
6:52 PM44 °FClear.7 mph43%30.40 "Hg10 mi
5:52 PM45 °FPassing clouds.9 mph44%30.39 "Hg10 mi
4:52 PM49 °FScattered clouds.5 mph38%30.37 "Hg10 mi
3:52 PM49 °FScattered clouds.6 mph36%30.36 "Hg10 mi
2:52 PM49 °FScattered clouds.5 mph38%30.35 "Hg10 mi
1:52 PM46 °FPartly sunny.No wind42%30.35 "Hg10 mi
Weather by CustomWeather, © 2015

See weather overviewHow to use our weather pages